Regional Weather Roundup
Issued by NWS

Home | Current Version | Previous Version | Text Only | Print | Product List | Glossary Off
Versions: 1 2 3 4 5 6 7 8 9 10 11 12 13 14 15 16 17 18 19 20 21 22 23 24 25 26 27 28

000
ASUS45 KCYS 151310
RWRWY

WYOMING REGIONAL WEATHER ROUNDUP
NATIONAL WEATHER SERVICE CHEYENNE WY
700 AM MDT TUE APR 15 2014

NOTE:  "FAIR" INDICATES FEW OR NO CLOUDS BELOW 12,000 FEET
WITH NO SIGNIFICANT WEATHER AND/OR OBSTRUCTIONS TO VISIBILITY.

WYZ001-151400-
YELLOWSTONE NATIONAL PARK

CITY           SKY/WX    TMP DP  RH WIND       PRES   REMARKS
LK YELLOWSTONE   N/A     18  12  77 CALM      29.99F
W YELLOWSTONE  NOT AVBL

$$
WYZ002>013-054>058-071-098>099-151400-
NORTHERN WYOMING

CITY           SKY/WX    TMP DP  RH WIND       PRES   REMARKS
JACKSON        PTCLDY    21  18  86 MISG      30.00F
CODY           MOCLDY    43  12  28 W8        29.84R
GREYBULL       CLOUDY    31  25  78 CALM      29.87S
WORLAND        CLOUDY    30  25  81 S5        29.86F WCI  25
SHERIDAN       MOCLDY    29  23  78 W3        29.76F
BUFFALO        MOCLDY    39  13  34 CALM      29.79F
GILLETTE       PTCLDY    39  19  44 SW16      29.78F WCI  30
HULETT         FAIR      34  19  55 SW10      29.78  WCI  26
NEWCASTLE      FAIR      27  19  74 SE5       29.85  WCI  21

$$
WYZ014>020-022>026-101>103-151400-
CENTRAL WYOMING

CITY           SKY/WX    TMP DP  RH WIND       PRES   REMARKS
BIG PINEY      MOCLDY    20  16  84 CALM      30.03F
PINEDALE       MOSUNNY   18  12  79 W5        30.05S WCI  11
DUBOIS         FAIR      34   5  29 NW13G22   29.93S WCI  25
LANDER         MOCLDY    33  20  58 E3        29.88F
RIVERTON       MOCLDY    34  16  47 W10       29.90F WCI  26
CASPER         CLOUDY    37  19  48 SW15      29.90S WCI  28
DOUGLAS        PTCLDY    23  19  85 SE5       29.88F WCI  17

$$
WYZ021-027>030-104>119-151400-
SOUTHERN WYOMING

CITY           SKY/WX    TMP DP  RH WIND       PRES   REMARKS
EVANSTON       MOCLDY    32  11  41 SW15      30.06F WCI  22
FORT BRIDGER   FAIR      36  12  37 W7        30.06F WCI  30
ROCK SPRINGS   CLOUDY    34   3  27 W9        30.03F WCI  27
DIXON          FAIR      25  19  77 SE6       30.13F WCI  18
RAWLINS        MOCLDY    34  12  40 SW14G25   30.01F WCI  25
SARATOGA       FAIR      28  18  64 S7        30.05S WCI  21
LARAMIE        CLEAR     29  13  51 SW17      29.97F WCI  17
CHEYENNE       CLEAR     36  14  40 W9        29.94S WCI  29
TORRINGTON     PTCLDY    23  19  85 E3        29.89F
PINE BLUFFS    FAIR      25  19  80 S3        29.95F

$$



USA.gov is the U.S. government's official web portal to all federal, state and local government web resources and services.